Pearl, MS

3:03 PM CDT on August 29, 2016 (GMT -0500)
Jackson-Evers International

Weather History for KJAN - February, 2014

Change the Weather History Date:

Wednesday, February 12, 2014

  Actual Average Record
Temperature  
Mean Temperature 34 °F 49 °F  
Max Temperature 37 °F 60 °F 84 °F (1922)
Min Temperature 31 °F 38 °F 14 °F (1968)
Degree Days  
Heating Degree Days 31 16  
Month to date heating degree days 271 209  
Since 1 July heating degree days 2054 1761  
Cooling Degree Days 0 0  
Month to date cooling degree days 0 0  
Year to date cooling degree days 0 4  
Moisture  
Dew Point 32 °F    
Average Humidity 95    
Maximum Humidity 100    
Minimum Humidity 89    
Precipitation  
Precipitation 0.20 in 0.17 in 2.56 in (1945)
Month to date precipitation 3.40 2.08  
Year to date precipitation 5.01 7.05  
Sea Level Pressure  
Sea Level Pressure 30.01 in    
Wind  
Wind Speed 9 mph (NNW)    
Max Wind Speed 16 mph    
Max Gust Speed 20 mph    
Visibility 3 miles    
Events Fog , Rain    
T = Trace of Precipitation, MM = Missing Value Source: NWS Daily Summary

Daily Weather History Graph

Daily Weather History Graph

Search for Another Location

Airport or City:

Trip Planner

Search our weather history database for the weather conditions in past years. The results will help you decide how hot, cold, wet, or windy it might be!

Date:

Astronomy

Feb. 12, 2014 Rise Set
Actual Time 6:45 AM CST 5:43 PM CST
Civil Twilight 6:20 AM CST 6:09 PM CST
Nautical Twilight 5:51 AM CST 6:37 PM CST
Astronomical Twilight 5:23 AM CST 7:06 PM CST
Moon 3:59 PM CST (2/12) 4:59 AM CST (2/12)
Length of Visible Light 11h 48m
Length of Day
10h 58m
Waxing Gibbous, 95% of the Moon is Illuminated
Feb 12
Waxing Gibbous
Feb 14
Full
Feb 22
Last Quarter
Mar 1
New
Mar 8
First Quarter

Hourly Weather History & Observations

Time (CST) Temp. Windchill Dew Point Humidity Pressure Visibility Wind Dir Wind Speed Gust Speed Precip Events Conditions
12:51 AM 33.8 °F 25.8 °F 32.0 °F 93% 30.08 in 4.0 mi North 10.4 mph - 0.02 in Rain Light Rain
12:54 AM 34.0 °F 25.5 °F 32.0 °F 92% 30.08 in 4.0 mi North 11.5 mph - 0.03 in Rain Light Rain
1:54 AM 34.0 °F 26.6 °F 32.0 °F 92% 30.09 in 5.0 mi North 9.2 mph - 0.05 in Rain Light Rain
2:54 AM 35.1 °F 26.9 °F 32.0 °F 89% 30.03 in 8.0 mi North 11.5 mph - 0.06 in Rain Light Rain
3:01 AM 35.6 °F 28.6 °F 33.8 °F 93% 30.05 in 8.0 mi North 9.2 mph - 0.00 in Rain Light Rain
3:52 AM 33.8 °F 25.8 °F 32.0 °F 93% 30.02 in 5.0 mi North 10.4 mph - 0.00 in   Overcast
3:54 AM 34.0 °F 25.5 °F 32.0 °F 92% 30.02 in 5.0 mi North 11.5 mph - 0.00 in   Overcast
4:54 AM 34.0 °F 26.0 °F 32.0 °F 92% 30.03 in 6.0 mi NNE 10.4 mph - 0.00 in Rain Light Rain
5:54 AM 35.1 °F 28.6 °F 33.1 °F 92% 30.02 in 5.0 mi NNE 8.1 mph - 0.00 in Rain Light Freezing Rain
6:20 AM 35.6 °F 28.6 °F 33.8 °F 93% 30.01 in 6.0 mi NNE 9.2 mph - 0.01 in Rain Light Rain
6:54 AM 35.1 °F 27.9 °F 33.1 °F 92% 30.02 in 3.0 mi NNE 9.2 mph - 0.01 in Rain Light Rain
7:16 AM 35.6 °F 28.6 °F 33.8 °F 93% 30.03 in 3.0 mi North 9.2 mph - 0.00 in Rain Light Rain
7:54 AM 34.0 °F 27.2 °F 33.1 °F 96% 30.03 in 3.0 mi North 8.1 mph - 0.00 in Rain Light Rain
8:54 AM 35.1 °F 28.6 °F 33.1 °F 92% 30.03 in 3.0 mi North 8.1 mph - 0.01 in Rain Light Rain
9:54 AM 36.0 °F 29.6 °F 34.0 °F 93% 30.03 in 3.0 mi NNW 8.1 mph - 0.03 in Rain Light Rain
10:54 AM 35.1 °F 26.9 °F 33.1 °F 92% 30.03 in 4.0 mi NNW 11.5 mph - 0.01 in Rain Light Rain
11:39 AM 35.6 °F 28.0 °F 33.8 °F 93% 30.00 in 4.0 mi North 10.4 mph - 0.00 in   Light Drizzle
11:54 AM 36.0 °F 29.6 °F 34.0 °F 93% 30.00 in 5.0 mi North 8.1 mph - 0.00 in   Light Drizzle
12:54 PM 36.0 °F 28.0 °F 34.0 °F 93% 29.98 in 5.0 mi NNW 11.5 mph - 0.00 in   Light Drizzle
1:54 PM 36.0 °F 28.0 °F 34.0 °F 93% 29.95 in 7.0 mi NNW 11.5 mph - 0.00 in   Light Drizzle
2:54 PM 35.1 °F 26.9 °F 33.1 °F 92% 29.94 in 4.0 mi NNW 11.5 mph - 0.00 in   Overcast
3:20 PM 33.8 °F 25.3 °F 33.8 °F 100% 29.93 in 1.0 mi NW 11.5 mph - N/A   Overcast
3:54 PM 34.0 °F 26.6 °F 32.0 °F 92% 29.95 in 1.0 mi NNW 9.2 mph - N/A   Overcast
4:54 PM 33.1 °F 26.1 °F 30.9 °F 92% 29.96 in 1.0 mi NW 8.1 mph - N/A   Overcast
5:12 PM 33.8 °F 25.8 °F 30.2 °F 87% 29.96 in 0.5 mi WNW 10.4 mph - N/A Fog Fog
5:54 PM 32.0 °F 24.2 °F 30.9 °F 96% 29.98 in 0.5 mi NW 9.2 mph - N/A Fog Fog
6:54 PM 32.0 °F 25.6 °F 30.0 °F 92% 29.99 in 0.5 mi NW 6.9 mph - 0.00 in Fog Light Drizzle
7:54 PM 30.9 °F 21.7 °F 30.0 °F 96% 30.00 in 0.5 mi WNW 11.5 mph - 0.00 in Fog Light Freezing Rain
8:54 PM 30.9 °F 21.7 °F 30.0 °F 96% 30.02 in 0.5 mi NW 11.5 mph - 0.00 in Fog Light Freezing Rain
9:46 PM 30.2 °F 21.9 °F 30.2 °F 100% 30.00 in 1.0 mi NW 9.2 mph 17.3 mph 0.00 in   Light Freezing Rain
9:54 PM 30.9 °F 25.2 °F 30.0 °F 96% 30.01 in 1.0 mi NW 5.8 mph - 0.00 in   Light Freezing Rain
10:54 PM 32.0 °F 24.8 °F 30.0 °F 92% 30.01 in 1.0 mi NW 8.1 mph - 0.00 in   Light Drizzle
11:06 PM 32.0 °F 25.6 °F 30.2 °F 93% 30.00 in 2.5 mi NW 6.9 mph - 0.00 in   Overcast
11:54 PM 32.0 °F 26.4 °F 30.9 °F 96% 30.00 in 2.0 mi NW 5.8 mph - 0.00 in   Overcast